Location: Unspecified
(48.8656°N, 0.0000°E)
Time: 16:06:20
(UTC+00:00)

Vanguard 1 - Pass Details

Date: 26 June 2019
Orbit: 653 x 3830 km, 34.3° (Epoch: 15 July)

Event Time Altitude Azimuth Distance (km) Brightness Sun altitude
Rises 07:14:47 0° 271° (W) 5,954 13.5 29.0°
Reaches altitude 10° 07:21:07 10° 254° (WSW) 4,226 12.9 30.1°
Maximum altitude 07:26:46 16° 222° (SW) 3,099 12.4 31.0°
Drops below altitude 10° 07:31:04 10° 186° (S) 3,038 12.6 31.7°
Sets 07:34:29 0° 164° (SSE) 3,612 13.2 32.3°
